Le nostre stazioni meteo in Italia

Pubblicità
Il mio iltempo24.it
Passo Rolle, Italia (16021): Temperatura & dewpoint: 13.03.2019 19:00:00 - 19.03.2019 19:00:00 (CET)Passo Rolle, Italia (16021): velocità del vento: 13.03.2019 19:00:00 - 19.03.2019 19:00:00 (CET)Passo Rolle, Italia (16021): direzione del vento: 13.03.2019 19:00:00 - 19.03.2019 19:00:00 (CET)Passo Rolle, Italia (16021): visibility: 13.03.2019 19:00:00 - 19.03.2019 19:00:00 (CET)
Data & Tempo tt [°C] td [°C] ff [km/h] ff [kn] dd vv [km]
19.03.2019 19:00:00 -5,6 -6,8 5 3 E 25
19.03.2019 18:00:00 -4,0 -10,0 8 4 NE 10
19.03.2019 17:00:00 -3,0 -11,0 13 7 NNE 10
19.03.2019 16:00:00 -3,2 -10,7 15 8 NE 50
19.03.2019 15:00:00 -2,0 -11,0 16 9 NE 10
19.03.2019 14:00:00 -2,0 -11,0 9 5 NNO 10
19.03.2019 13:00:00 -3,4 -10,0 5 3 ENE 75
19.03.2019 12:00:00 -5,0 -11,0 15 8 NNE 10
19.03.2019 11:00:00 -5,0 -10,0 13 7 N 10
19.03.2019 10:00:00 -6,6 -11,9 18 10 N 75
19.03.2019 09:00:00 -9,0 -12,0 5 3 O 10
19.03.2019 08:00:00 -10,0 -12,0 9 5 ONO 10
19.03.2019 07:00:00 -9,8 -11,7 11 6 O 40
19.03.2019 06:00:00 - - - - - -
19.03.2019 05:00:00 - - - - - -
19.03.2019 04:00:00 -9,8 -10,9 15 8 ONO 10
19.03.2019 03:00:00 - - - - - -
19.03.2019 02:00:00 - - - - - -
19.03.2019 01:00:00 -9,8 -11,1 16 9 ONO 10
19.03.2019 00:00:00 - - - - - -
18.03.2019 23:00:00 - - - - - -
18.03.2019 22:00:00 -8,6 -10,2 11 6 NO 10
18.03.2019 21:00:00 - - - - - -
18.03.2019 20:00:00 - - - - - -
18.03.2019 19:00:00 -5,8 -7,5 15 8 NNO 20
18.03.2019 18:00:00 -4,0 -7,0 18 10 N 10
18.03.2019 17:00:00 -3,0 -6,0 22 12 N 10
18.03.2019 16:00:00 -3,0 -6,3 15 8 NNO 60
18.03.2019 15:00:00 -2,0 -6,0 21 11 N 10
18.03.2019 14:00:00 -3,0 -6,0 16 9 NNO 10
18.03.2019 13:00:00 -5,0 -9,6 15 8 O 50
18.03.2019 12:00:00 -5,0 -8,0 15 8 NO 10
18.03.2019 11:00:00 -7,0 -8,0 15 8 NO 0,3
18.03.2019 10:00:00 -6,8 -7,9 21 11 O 0,1
18.03.2019 09:00:00 -7,0 -8,0 18 10 O 0,1
18.03.2019 08:00:00 - - - - - -
18.03.2019 07:00:00 -7,0 -8,1 24 13 O 0,1
18.03.2019 06:00:00 -7,0 -8,0 22 12 O 0,1
18.03.2019 05:00:00 -7,0 -8,0 22 12 S 0,1
18.03.2019 04:00:00 -7,0 -8,1 24 13 SSE 10
18.03.2019 03:00:00 - - - - - -
18.03.2019 02:00:00 - - - - - -
18.03.2019 01:00:00 -6,8 -7,9 21 11 S 0,1
18.03.2019 00:00:00 - - - - - -
17.03.2019 23:00:00 - - - - - -
17.03.2019 22:00:00 -5,0 -6,1 18 10 SSE 0,1
17.03.2019 21:00:00 - - - - - -
17.03.2019 20:00:00 - - - - - -
17.03.2019 19:00:00 -5,0 -6,1 16 9 SSE 0,1
17.03.2019 18:00:00 -4,0 -5,0 18 10 SSE 0,1
17.03.2019 17:00:00 -4,0 -5,0 28 15 SSE 0,8
17.03.2019 16:00:00 -3,6 -4,7 29 16 SSE 0,8
17.03.2019 15:00:00 -2,0 -3,0 28 15 SE 0,8
17.03.2019 14:00:00 -1,0 -3,0 26 14 SSE 10
17.03.2019 13:00:00 0,4 -3,0 28 15 SSE 40
17.03.2019 12:00:00 2,0 -5,0 35 19 SE 10
17.03.2019 11:00:00 0,0 -3,0 28 15 ESE 10
17.03.2019 10:00:00 -5,0 -6,1 24 13 ESE 0,1
17.03.2019 09:00:00 -6,0 -7,0 15 8 ESE 10
17.03.2019 08:00:00 -6,0 -9,0 24 13 ESE 10
17.03.2019 07:00:00 -4,8 -12,7 11 6 SE 60
17.03.2019 06:00:00 -5,0 -13,0 13 7 ESE 10
17.03.2019 05:00:00 -5,0 -12,0 8 4 N 10
17.03.2019 04:00:00 -4,6 -12,5 5 3 N 10
17.03.2019 03:00:00 - - - - - -
17.03.2019 02:00:00 - - - - - -
17.03.2019 01:00:00 -3,8 -15,4 5 3 NNO 10
17.03.2019 00:00:00 - - - - - -
16.03.2019 23:00:00 - - - - - -
16.03.2019 22:00:00 -3,0 -14,7 4 2 ESE 10
16.03.2019 21:00:00 - - - - - -
16.03.2019 20:00:00 - - - - - -
16.03.2019 19:00:00 0,0 -14,0 15 8 NE 20
16.03.2019 18:00:00 2,0 -12,0 5 3 O 10
16.03.2019 17:00:00 4,0 -11,0 8 4 NNO 10
16.03.2019 16:00:00 4,0 -11,2 4 2 N 80
16.03.2019 15:00:00 6,0 -10,0 16 9 OSO 10
16.03.2019 14:00:00 6,0 -9,0 18 10 OSO 10
16.03.2019 13:00:00 5,0 -11,1 15 8 OSO 75
16.03.2019 12:00:00 5,0 -7,0 0 0 N 10
16.03.2019 11:00:00 4,0 -8,0 0 0 N 10
16.03.2019 10:00:00 2,8 -7,1 0 0 N 75
16.03.2019 09:00:00 2,0 -6,0 8 4 N 10
16.03.2019 08:00:00 - - - - - -
16.03.2019 07:00:00 0,6 -6,3 18 10 NNO 60
16.03.2019 06:00:00 - - - - - -
16.03.2019 05:00:00 - - - - - -
16.03.2019 04:00:00 0,0 -4,4 22 12 NNO 10
16.03.2019 03:00:00 - - - - - -
16.03.2019 02:00:00 - - - - - -
16.03.2019 01:00:00 0,0 -3,0 15 8 NNO 10
16.03.2019 00:00:00 - - - - - -
15.03.2019 23:00:00 - - - - - -
15.03.2019 22:00:00 0,2 -2,8 21 11 NNO 10
15.03.2019 21:00:00 - - - - - -
15.03.2019 20:00:00 - - - - - -
15.03.2019 19:00:00 1,8 -3,5 34 18 NO 30
15.03.2019 18:00:00 2,0 -3,0 24 13 NO 10
15.03.2019 17:00:00 2,0 -4,0 31 17 NO 10
15.03.2019 16:00:00 2,0 -3,7 29 16 NO 50
15.03.2019 15:00:00 2,0 -4,0 42 23 NO 10
15.03.2019 14:00:00 2,0 -4,0 34 18 NO 10
15.03.2019 13:00:00 1,2 -4,1 35 19 NO 50
15.03.2019 12:00:00 0,0 -6,0 34 18 NO 10
15.03.2019 11:00:00 0,0 -5,0 26 14 ONO 10
15.03.2019 10:00:00 -1,2 -5,1 28 15 NO 50
15.03.2019 09:00:00 -2,0 -6,0 29 16 NNO 10
15.03.2019 08:00:00 -2,0 -6,0 28 15 N 10
15.03.2019 07:00:00 -3,0 -4,9 11 6 N 25
15.03.2019 06:00:00 -3,0 -4,0 9 5 NNO 10
15.03.2019 05:00:00 - - - - - -
15.03.2019 04:00:00 -3,2 -3,9 11 6 NNO 5
15.03.2019 03:00:00 - - - - - -
15.03.2019 02:00:00 - - - - - -
15.03.2019 01:00:00 -3,6 -4,3 9 5 N 10
15.03.2019 00:00:00 - - - - - -
14.03.2019 23:00:00 - - - - - -
14.03.2019 22:00:00 -3,6 -6,5 9 5 NNO 15
14.03.2019 21:00:00 - - - - - -
14.03.2019 20:00:00 - - - - - -
14.03.2019 19:00:00 -3,0 -6,6 8 4 S 15
14.03.2019 18:00:00 -3,0 -8,0 8 4 SSO 10
14.03.2019 17:00:00 -2,0 -10,0 15 8 S 10
14.03.2019 16:00:00 -1,0 -11,4 9 5 SSO 30
14.03.2019 15:00:00 -1,0 -12,0 15 8 O 10
14.03.2019 14:00:00 0,0 -11,0 11 6 SO 10
14.03.2019 13:00:00 -1,0 -11,4 16 9 OSO 50
14.03.2019 12:00:00 -2,0 -11,0 16 9 O 10
14.03.2019 11:00:00 -3,0 -10,0 16 9 ONO 10
14.03.2019 10:00:00 -4,6 -10,2 26 14 ONO 50
14.03.2019 09:00:00 -5,0 -9,0 8 4 NO 10
14.03.2019 08:00:00 -6,0 -10,0 4 2 - 10
14.03.2019 07:00:00 -6,2 -10,2 2 1 - 50
14.03.2019 06:00:00 -6,0 -11,0 5 3 N 10
14.03.2019 05:00:00 -6,0 -12,0 8 4 N 10
14.03.2019 04:00:00 -6,0 -12,9 9 5 NNE 15
14.03.2019 03:00:00 - - - - - -
14.03.2019 02:00:00 - - - - - -
14.03.2019 01:00:00 -5,4 -13,0 9 5 N 15
14.03.2019 00:00:00 - - - - - -
13.03.2019 23:00:00 - - - - - -
13.03.2019 22:00:00 -5,0 -12,4 11 6 N 15
13.03.2019 21:00:00 - - - - - -
13.03.2019 20:00:00 - - - - - -
13.03.2019 19:00:00 -3,8 -6,4 9 5 N 15

tt = Temperatura
td = dewpoint
ff = velocità del vento
dd = direzione del vento
vv = visibility

Stazioni seguenti

WeatherPro
AMSI
MeteoEarth